Location: Oshawa
(43.9000°N, 78.8670°W)
Time: 20:21:56
(UTC-04:00)

SPOT 5 - Visible Passes

Search period start: 01 August 2014 00:00
Search period end: 11 August 2014 00:00
Orbit: 824 x 826 km, 98.6° (Epoch: 01 August)

Date Brightness Start Highest point End Pass type
(mag) Time Alt. Az. Time Alt. Az. Time Alt. Az.
01 Aug 3.7 21:39:33 13° SE 21:44:04 43° ENE 21:49:07 10° N visible
01 Aug 4.8 23:21:01 15° SW 23:24:24 27° W 23:28:55 10° NW visible
02 Aug 4.2 21:20:17 10° SE 21:24:53 30° ENE 21:29:29 10° N visible
02 Aug 4.2 23:01:30 19° SSW 23:04:55 39° W 23:09:57 10° NNW visible
03 Aug 4.6 21:01:48 10° ESE 21:05:44 21° ENE 21:09:41 10° NNE visible
03 Aug 3.6 22:41:59 21° S 22:45:30 58° W 22:50:48 10° NNW visible
04 Aug 3.1 22:22:28 21° SSE 22:26:07 85° WSW 22:31:32 10° NNW visible
05 Aug 5.7 00:05:43 10° WSW 00:07:06 11° W 00:08:29 10° WNW visible
05 Aug 3.2 22:02:58 19° SSE 22:06:48 67° ENE 22:12:09 10° N visible
05 Aug 5.4 23:44:26 11° SW 23:47:29 17° W 23:50:54 10° NW visible
06 Aug 3.6 21:43:27 16° SE 21:47:32 46° ENE 21:52:39 10° N visible
06 Aug 4.9 23:24:55 16° SW 23:27:56 25° W 23:32:18 10° NW visible
07 Aug 4.1 21:23:57 11° SE 21:28:20 32° ENE 21:33:03 10° N visible
07 Aug 4.3 23:05:24 20° SSW 23:08:26 36° W 23:13:23 10° NNW visible
08 Aug 4.5 21:05:05 10° ESE 21:09:11 23° ENE 21:13:17 10° NNE visible
08 Aug 3.7 22:45:54 24° SSW 22:49:00 54° W 22:54:16 10° NNW visible
09 Aug 3.2 22:26:24 25° S 22:29:36 79° WSW 22:35:00 10° NNW visible
10 Aug 3.1 22:06:53 23° SSE 22:10:16 72° ENE 22:15:38 10° N visible
10 Aug 5.4 23:48:21 11° WSW 23:51:01 16° W 23:54:09 10° NW visible
